GW3137 Weather Reports


Display with metric or nautical units.
time (UTC)temp
F
wind
direction
speed
MPH
gust
MPH
rain 1hr
in
rain 24hr
in
rain mn
in
humidity
%
barometer
mb
20260505030704 71 209 4.0 10.0 0.00 0.00 0.00 59 1009.2
20260505030204 72 199 2.0 10.0 0.00 0.00 0.00 58 1009.2
20260505023204 76 245 3.0 9.0 0.00 0.00 0.00 52 1009.0
20260505020204 79 244 3.0 9.0 0.00 0.00 0.00 50 1008.9
20260505013704 80 215 3.0 8.0 0.00 0.00 0.00 48 1008.9
20260505013204 80 220 3.0 12.0 0.00 0.00 0.00 47 1008.9
20260505010204 82 249 2.0 8.0 0.00 0.00 0.00 44 1009.0
20260505003204 83 224 1.0 8.0 0.00 0.00 0.00 40 1009.0
20260505000705 83 245 5.0 10.0 0.00 0.00 0.00 37 1009.2
20260505000204 83 189 2.0 9.0 0.00 0.00 0.00 37 1009.2
20260504233704 81 296 4.0 10.0 0.00 0.00 0.00 32 1009.2
20260504233204 82 253 3.0 12.0 0.00 0.00 0.00 30 1009.2
20260504230704 83 220 2.0 8.0 0.00 0.00 0.00 32 1009.3
20260504230204 84 218 3.0 8.0 0.00 0.00 0.00 31 1009.3
20260504223705 82 226 3.0 9.0 0.00 0.00 0.00 33 1009.7
20260504223204 81 177 5.0 9.0 0.00 0.00 0.00 32 1009.7
20260504220204 81 253 2.0 8.0 0.00 0.00 0.00 32 1010.0
20260504213704 80 195 2.0 9.0 0.00 0.00 0.00 38 1010.1
20260504213204 81 240 3.0 8.0 0.00 0.00 0.00 36 1010.0
20260504210704 79 219 3.0 8.0 0.00 0.00 0.00 39 1010.2
20260504210204 79 270 4.0 9.0 0.00 0.00 0.00 38 1010.2
20260504203704 78 275 2.0 7.0 0.00 0.00 0.00 42 1010.4
20260504203203 78 168 3.0 10.0 0.00 0.00 0.00 41 1010.4
20260504200705 76 228 3.0 9.0 0.00 0.00 0.00 44 1010.3
20260504200204 77 170 2.0 9.0 0.00 0.00 0.00 44 1010.3
20260504193705 75 204 3.0 6.0 0.00 0.00 0.00 46 1010.5
20260504193204 75 172 3.0 12.0 0.00 0.00 0.00 45 1010.5
20260504190704 74 250 3.0 8.0 0.00 0.00 0.00 48 1010.7
20260504190204 74 189 4.0 9.0 0.00 0.00 0.00 49 1010.6
20260504183704 73 189 3.0 8.0 0.00 0.00 0.00 49 1010.8
20260504183205 73 223 3.0 9.0 0.00 0.00 0.00 49 1010.8
20260504180704 73 208 3.0 9.0 0.00 0.00 0.00 49 1010.9
20260504180203 73 254 2.0 9.0 0.00 0.00 0.00 50 1010.9
20260504173705 71 261 2.0 5.0 0.00 0.00 0.00 53 1010.8
20260504173204 71 183 3.0 9.0 0.00 0.00 0.00 54 1010.8
20260504170704 69 177 2.0 7.0 0.00 0.00 0.00 59 1010.8
20260504150705 60 267 1.0 2.0 0.00 0.00 0.00 75 1010.2
20260504150204 60 267 1.0 2.0 0.00 0.00 0.00 75 1010.2
20260504140704 58 71 0.0 0.0 0.00 0.00 0.00 75 1009.8
20260504130704 55 71 0.0 0.0 0.00 0.00 0.00 78 1009.3
20260504130204 55 71 0.0 0.0 0.00 0.00 0.00 78 1009.2
20260504110704 57 71 0.0 0.0 0.00 0.00 0.00 75 1009.1
20260504110204 57 71 0.0 2.0 0.00 0.00 0.00 75 1009.1
20260504100204 58 98 0.0 0.0 0.00 0.00 0.00 75 1009.0
20260504080704 62 66 0.0 0.0 0.00 0.00 0.00 68 1008.9
20260504080204 63 66 0.0 1.0 0.00 0.00 0.00 67 1009.0
20260504070205 64 66 0.0 2.0 0.00 0.00 0.00 62 1009.0
20260504050704 69 24 1.0 3.0 0.00 0.00 0.00 57 1008.9
20260504050204 69 23 1.0 3.0 0.00 0.00 0.00 58 1009.0
20260504043704 71 33 1.0 3.0 0.00 0.00 0.00 55 1009.0
20260504043204 71 14 1.0 3.0 0.00 0.00 0.00 55 1008.9
20260504040703 71 22 2.0 3.0 0.00 0.00 0.00 54 1008.8
20260504040204 71 318 1.0 5.0 0.00 0.00 0.00 54 1008.8
20260504033204 74 356 2.0 7.0 0.00 0.00 0.00 49 1008.6